OpenBCM V1.13 (Linux)

Packet Radio Mailbox

DB0FHN

[JN59NK Nuernberg]

 Login: GUEST





  
LU1HVK > KEP      06.10.19 08:55l 243 Lines 12025 Bytes #999 (0) @ WW
BID : 32868_LU1HVK
Read: DF7EAV DJ6UX GUEST
Subj: TLE 06 10
Path: DB0FHN<OE2XZR<OE5XBL<F1OYP<F4DUR<LU4ECL<ZL2BAU<N9PMO<GB7YEW<N3HYM<
      LU3DVN<LU3WAM<LU9HGS<LU1HVK
Sent: 191006/0522Z 32868@LU1HVK.2594.CBA.ARG.SA LinBPQ6.0.19

                         _    _   _ _ _   ___     ___  __
                        | |  | | | / | | | \ \   / / |/ /
                        | |  | | | | | |_| |\ \ / /| ' /
                        | |__| |_| | |  _  | \ V / | . \
                        |_____\___/|_|_| |_|  \_/  |_|\_\

     BBS/NODO - CORDOBA (LEONES-FF87UH) - LU1HVK-4 NODO - LU1HVK-3 APRS

+----------------------------------------------------------------------------+
OSCAR 7
1  7530U 74089B   19278.87285738 -.00000029 +00000-0 +10075-3 0  9996
2  7530 101.7584 245.4657 0012296 134.8950 279.2600 12.53640075053968
OSCAR 11 (UoSAT 2)
1 14781U 84021B   19278.93060705 +.00000041 +00000-0 +11201-4 0  9997
2 14781 097.6059 298.4503 0007610 330.0314 030.0464 14.83110085893950
OSCAR 19 (LUSAT)
1 20442U 90005G   19278.87847722 +.00000019 +00000-0 +23312-4 0  9993
2 20442 098.6569 220.7358 0011585 182.2943 177.8189 14.32934159551950
EYESAT A
1 22825U 93061C   19278.92754336 -.00000002 +00000-0 +17108-4 0  9998
2 22825 098.9125 270.1023 0009186 046.0256 314.1681 14.30067720357297
ITAMSAT
1 22826U 93061D   19278.90374913 +.00000004 +00000-0 +19251-4 0  9998
2 22826 098.9065 270.0556 0009550 035.3147 324.8666 14.30401829357514
RADIO ROSTO
1 23439U 94085A   19278.87139434 -.00000040 +00000-0 +59067-4 0  9999
2 23439 064.8155 299.5682 0145261 091.9666 269.7900 11.27568164020207
JAS 2
1 24278U 96046B   19278.91301295 -.00000028 +00000-0 +10560-4 0  9992
2 24278 098.5542 057.5827 0349579 316.9902 040.4390 13.53093568142324
TECHSAT 1B
1 25397U 98043D   19278.83588893 +.00000004 +00000-0 +20917-4 0  9996
2 25397 098.6960 217.6917 0002396 083.3362 276.8090 14.23671643103186
ISS (ZARYA)
1 25544U 98067A   19279.17085231  .00001896  00000-0  40999-4 0  9994
2 25544  51.6443 170.9077 0007591 119.2518  40.5064 15.50172767192478
PCSAT
1 26931U 01043C   19278.91618742 -.00000045 +00000-0 +14716-4 0  9997
2 26931 067.0503 081.8249 0007424 269.4112 090.6138 14.30554185940521
SAUDISAT 1C
1 27607U 02058C   19278.86661787  .00000003  00000-0  21224-4 0  9991
2 27607  64.5545  75.8039 0075705 235.3000 124.0955 14.75576058903143
CUTE-1
1 27844U 03031E   19278.91257764 +.00000041 +00000-0 +38006-4 0  9996
2 27844 098.6857 285.4980 0010924 076.7944 283.4452 14.22197589843774
CUBESAT XI 4
1 27848U 03031J   19278.93587578 +.00000032 +00000-0 +34305-4 0  9999
2 27848 098.6931 286.0435 0010869 087.2283 273.0138 14.21790327843633
MOZHAYETS 4
1 27939U 03042A   19278.92197848 +.00000091 +00000-0 +24895-4 0  9996
2 27939 098.0570 052.7072 0014148 082.8592 277.4219 14.66807428856553
CUBESAT XI 5
1 28895U 05043F   19278.88730529 +.00000124 +00000-0 +32601-4 0  9996
2 28895 097.9751 057.9750 0016936 011.7910 348.3686 14.63696187743226
CUTE-1.7+APD II
1 32785U 08021C   19278.80140775 +.00000182 +00000-0 +25231-4 0  9993
2 32785 097.5558 273.4018 0011529 260.3787 099.6128 14.88352434619847
DELFI C3
1 32789U 08021G   19278.70822105 +.00000689 +00000-0 +49760-4 0  9995
2 32789 097.4537 325.0320 0013766 110.5870 249.6836 15.07148791623288
SEEDS
1 32791U 08021J   19278.76998933 +.00000278 +00000-0 +33541-4 0  9991
2 32791 097.5316 279.4450 0012104 230.5973 129.4175 14.90879998620284
YUBELEINY
1 32953U 08025A   19278.78066329  .00000020  00000-0  75656-4 0  9990
2 32953  82.4985  76.9145 0018760 251.3221 108.5816 12.43091369515862
PRISM (HITOMI)
1 33493U 09002B   19278.83627726 -.00000019 +00000-0 +38983-5 0  9998
2 33493 098.1217 203.9304 0014706 176.6800 183.4520 14.96752514581460
KKS-1 (KISEKI)
1 33499U 09002H   19278.85913584 +.00000071 +00000-0 +18446-4 0  9994
2 33499 098.3423 121.0155 0008353 212.8477 147.2213 14.75466554574894
SWISSCUBE
1 35932U 09051B   19278.91034044 +.00000133 +00000-0 +41022-4 0  9999
2 35932 098.5983 088.1523 0007515 182.4908 177.6253 14.56314817532633
BEESAT
1 35933U 09051C   19278.90676361 +.00000106 +00000-0 +35000-4 0  9992
2 35933 098.6001 089.9525 0005468 193.3751 166.7302 14.56400111532704
ITUPSAT 1
1 35935U 09051E   19278.89006188 +.00000083 +00000-0 +30235-4 0  9995
2 35935 098.6111 090.1649 0007797 194.0668 166.0313 14.55555874532498
XIWANG-1 (HOPE-1)
1 36122U 09072B   19278.72640864 -.00000022 +00000-0 +51880-4 0  9997
2 36122 100.0773 275.9986 0008003 092.9002 267.3027 13.16351628471222
TISAT 1
1 36799U 10035E   19278.92775240 +.00000423 +00000-0 +48720-4 0  9990
2 36799 098.1699 074.8006 0013564 088.3873 271.8898 14.91168873500847
JUGNU
1 37839U 11058B   19278.66864497 +.00000329 +00000-0 +33589-4 0  9998
2 37839 019.9623 033.9215 0019083 088.1532 042.3649 14.12660486412578
SRMSAT
1 37841U 11058D   19278.87741895 +.00000297 +00000-0 +18261-4 0  9994
2 37841 019.9722 091.6886 0011847 316.3866 190.2369 14.10640436412036
M-CUBED/EXP-1 PRIME
1 37855U 11061F   19278.85787203  .00000896  00000-0  52419-4 0  9992
2 37855 101.7148 230.4966 0173034 113.0857 248.8700 15.05617076433204
HORYU 2
1 38340U 12025D   19278.73908198 +.00000147 +00000-0 +29424-4 0  9997
2 38340 098.3190 320.5452 0012508 132.9869 227.2390 14.75755338386836
STRAND 1
1 39090U 13009E   19278.83134440 +.00000012 +00000-0 +19448-4 0  9991
2 39090 098.4781 122.9110 0008634 331.5922 028.4792 14.35099279346028
SOMP
1 39134U 13015E   19278.69187332 +.00001235 +00000-0 +65031-4 0  9996
2 39134 064.8647 027.2454 0036387 285.3063 074.4043 15.20367115356787
BEESAT 3
1 39135U 13015F   19278.74247306  .00000880  00000-0  52898-4 0  9993
2 39135  64.8691  46.9270 0035489 294.2313  65.5107 15.17632055356797
BEESAT 2
1 39136U 13015G   19278.82103347 +.00000810 +00000-0 +50471-4 0  9997
2 39136 064.8697 050.8092 0027263 299.7414 060.0999 15.17051055356337
CUBEBUG 1
1 39153U 13018D   19278.84062559  .00000185  00000-0  31080-4 0  9990
2 39153  97.9808  16.3678 0016503 200.4490 159.6063 14.80602579347960
ZACUBE
1 39417U 13066B   19278.94534650 +.00000203 +00000-0 +31733-4 0  9999
2 39417 097.5629 286.3078 0059824 037.0134 323.5184 14.81155922317212
TRITON 1
1 39427U 13066M   19278.93253966 +.00000170 +00000-0 +35043-4 0  9998
2 39427 097.6897 249.6348 0113794 175.0049 185.2322 14.67885515314179
GOMX 1
1 39430U 13066Q   19278.92069667 +.00000182 +00000-0 +42451-4 0  9998
2 39430 097.7574 228.3389 0149889 270.0563 088.3465 14.59292431312535
HUMSAT D
1 39433U 13066T   19278.64635220  .00000210  00000-0  25832-4 0  9990
2 39433  97.5429 321.6393 0029315 298.4351  61.3915 14.92262183319320
CUBEBUG 2
1 39440U 13066AA  19278.90600892 +.00000197 +00000-0 +34166-4 0  9998
2 39440 097.6094 270.9319 0081737 090.1621 270.8955 14.75892896314882
FUNCUBE 1
1 39444U 13066AE  19278.75028652  .00000258  00000-0  37896-4 0  9994
2 39444  97.5601 288.1720 0058837  31.1497 329.3182 14.81983126316087
UWE-3
1 39446U 13066AG  19278.92610468 +.00000203 +00000-0 +33362-4 0  9991
2 39446 097.5854 278.0819 0071407 064.1505 296.7048 14.78428251314816
SPROUT
1 39770U 14029E   19278.88337428 +.00000860 +00000-0 +10108-3 0  9999
2 39770 097.8887 021.4985 0009978 087.5109 272.7234 14.87446840291068
UNISAT 6
1 40012U 14033C   19278.69774573 +.00000159 +00000-0 +30918-4 0  9993
2 40012 097.7415 140.5301 0059652 105.6677 255.1125 14.74013324284740
DUCHIFAT 1
1 40021U 14033M   19278.75761508  .00000399  00000-0  46478-4 0  9998
2 40021  97.9239 203.7131 0014166  53.8036 306.4489 14.90695498287790
QB50P1
1 40025U 14033R   19278.83630658 +.00000242 +00000-0 +31669-4 0  9995
2 40025 097.9034 198.3319 0013810 063.1368 297.1259 14.88991980287053
CHUBUSAT 1
1 40300U 14070C   19278.79726412  .00000623  00000-0  30011-4 0  9994
2 40300  97.3177 350.1777 0021089  34.9156 105.8498 15.22191686272615
NUDT-PHONESAT
1 40900U 15049B   19278.77887387  .00001958  00000-0  85891-4 0  9992
2 40900  97.4381 287.0631 0013059 155.2979 291.7859 15.23100051224265
ZDPS 2A
1 40901U 15049C   19278.91808851 +.00000723 +00000-0 +38994-4 0  9999
2 40901 097.4620 283.1789 0013200 176.3957 271.1230 15.17856821223801
ZDPS 2B
1 40902U 15049D   19278.94964557 +.00001056 +00000-0 +55619-4 0  9992
2 40902 097.4575 280.6189 0013417 173.9617 242.9603 15.17717648223783
XW-2A
1 40903U 15049E   19278.93602058 +.00001902 +00000-0 +46258-4 0  9996
2 40903 097.3269 322.2687 0015052 107.1196 016.4611 15.42152577227089
KAITUO 1A
1 40904U 15049F   19278.94252683 +.00000572 +00000-0 +33669-4 0  9997
2 40904 097.4709 279.1040 0014221 183.5319 234.2049 15.15450408223541
OBJECT G
1 40905U 15049G   19278.96229201 +.00000203 +00000-0 +14612-4 0  9998
2 40905 097.4754 276.5614 0015371 179.1963 204.7508 15.14354262223411
XW-2C
1 40906U 15049H   19278.92110560 +.00000709 +00000-0 +40543-4 0  9995
2 40906 097.4715 279.2145 0014489 174.2648 245.5946 15.15771041223545
XW-2D
1 40907U 15049J   19278.95025493 +.00000516 +00000-0 +30296-4 0  9999
2 40907 097.4693 278.9244 0014275 171.7509 244.1743 15.15965098223567
LILACSAT 2
1 40908U 15049K   19278.91726995 +.00000429 +00000-0 +27275-4 0  9997
2 40908 097.4829 277.5985 0015490 179.5999 242.0203 15.13860317223334
XW-2F
1 40910U 15049M   19278.82014066  .00001053  00000-0  55873-4 0  9998
2 40910  97.4661 280.9602 0015032 164.1362 319.7758 15.17448304223565
XW-2B
1 40911U 15049N   19278.80247862  .00000792  00000-0  44765-4 0  9996
2 40911  97.4717 279.4466 0014037 172.3724 311.7907 15.15895491223431
KAITUO 1B
1 40912U 15049P   19278.81661056  .00001162  00000-0  57380-4 0  9992
2 40912  97.4511 284.7707 0015547 146.1900 338.6696 15.19778540223884
TIANWANG 1C (TW-1C)
1 40926U 15051B   19278.86936488  .00012921  00000-0  17529-3 0  9994
2 40926  97.1241 324.9690 0006715 339.8492 105.1477 15.57749480227148
TIANWANG 1B (TW-1B)
1 40927U 15051C   19278.87285313  .00011707  00000-0  16938-3 0  9994
2 40927  97.1269 324.1200 0007347 353.8052  61.0484 15.56028326226985
